This is the latest recevied weather packets stored in our database for station/object ZL1CTS-13. If no packets are shown the sender has not sent any weather packets the latest 10 day(s).
| Time | Temp. | Humidity | Pressure | Rain* | Wind** | Luminosity | Snow |
|---|---|---|---|---|---|---|---|
| 1787964904 | 15° C | 82% | 1003.3 hPa | 0 mm | - | - | - |
| 1787964604 | 15° C | 81% | 1003.3 hPa | 0 mm | - | - | - |
| 1787964316 | 15° C | 80% | 1003.5 hPa | 0 mm | - | - | - |
| 1787964004 | 15° C | 79% | 1003.6 hPa | 0 mm | - | - | - |
| 1787963703 | 15° C | 80% | 1003.6 hPa | 0 mm | - | - | - |
| 1787963404 | 15° C | 81% | 1003.8 hPa | 0 mm | - | - | - |
| 1787963104 | 15° C | 81% | 1003.9 hPa | 0 mm | - | - | - |
| 1787962804 | 15° C | 81% | 1003.9 hPa | 0 mm | - | - | - |
| 1787962504 | 15° C | 79% | 1004 hPa | 0 mm | - | - | - |
| 1787962204 | 15° C | 79% | 1004.1 hPa | 0 mm | - | - | - |
| 1787961905 | 15° C | 80% | 1004.1 hPa | 0 mm | - | - | - |
| 1787961604 | 15° C | 80% | 1004.2 hPa | 0 mm | - | - | - |
| 1787961304 | 15° C | 79% | 1004.3 hPa | 0 mm | - | - | - |
| 1787961008 | 15° C | 78% | 1004.4 hPa | 0 mm | - | - | - |
| 1787960704 | 15° C | 80% | 1004.5 hPa | 0 mm | - | - | - |
| 1787960406 | 15° C | 79% | 1004.5 hPa | 0 mm | - | - | - |
| 1787960104 | 15.56° C | 78% | 1004.6 hPa | 0 mm | - | - | - |
| 1787959805 | 15.56° C | 78% | 1004.4 hPa | 0 mm | - | - | - |
| 1787959504 | 15.56° C | 78% | 1004.6 hPa | 0 mm | - | - | - |
| 1787959205 | 15.56° C | 80% | 1004.5 hPa | 0 mm | - | - | - |
| 1787958904 | 15.56° C | 79% | 1004.7 hPa | 0 mm | - | - | - |
| 1787958605 | 16.11° C | 81% | 1004.7 hPa | 0 mm | - | - | - |
| 1787958304 | 16.11° C | 80% | 1004.7 hPa | 0 mm | - | - | - |
| 1787958006 | 16.11° C | 81% | 1004.7 hPa | 0 mm | - | - | - |
| 1787957704 | 15.56° C | 85% | 1004.7 hPa | 0 mm | - | - | - |
* Rain latest hour (hover to see other rain measurements)
** Current wind speed in m/s (hover to see current wind gust speed)